sat.trackr.live / text

‹ back to catalog

STARLINK-6244

NORAD 56548 · 2023-065AX

PAYLOAD ACTIVE UNKNOWN

§ Identity

Operator
Country
US
Launch date
2023-05-14
Launch site
AFETR
Launch vehicle
Mass (kg)
RCS (m²)

Purposes: comms

External: N2YO · Heavens-Above · Gunter

§ Orbital elements

Epoch: 2026-05-25T00:37:47.979264Z

Period
94.27 min
Inclination
43.0024°
Eccentricity
0.0001523
Mean motion
15.27578553 rev/d
Perigee alt
482.0 km
Apogee alt
484.1 km
Semi-major
6,861.2 km
B*
1.9145e-5
RAAN
152.7461°
Arg perigee
269.1917°
Mean anomaly
90.8760°
Rev number
16,814

§ Raw data

STARLINK-62441 56548U 23065AX  26145.02624976  .00000265  00000+0  19145-4 0  99942 56548  43.0024 152.7461 0001523 269.1917  90.8760 15.27578553168143

JSON: /api/v1/satellites/56548 · /tle

For live sub-satellite position, see the globe view (requires WebGL).

§ Visibility from observer

Set your observer location to see the next 7 days of passes ≥ 10°. The values pass through the URL so the page stays shareable.

No JS? Fill the form by hand. The geolocation button needs JavaScript.